Theta_e
299 294 291 294 297 297 296 294 292 296 298 295 294 294 297 299 298 297 299 300 300 300 302 302 302 301 299 297 295 294 292 292 293 291 290 289 289 289 289 289 289 289 288 288
295 292 297 299 298 295 294 292 292 295 297 294 293 293 296 297 298 299 299 299 300 298 299 299 300 299 298 296 295 293 293 292 292 292 291 290 289 289 289 289 288 288 287 287
292 295 300 297 295 293 293 291 292 291 294 291 289 288 291 295 298 299 300 300 300 297 298 298 298 298 297 295 294 293 293 292 292 292 291 289 289 287 286 287 286 287 287 286
294 298 297 294 293 294 289 295 293 292 288 285 291 281 289 292 293 294 297 297 296 296 298 298 297 296 296 295 295 293 293 292 292 292 291 288 287 284 285 287 286 286 286 285
292 292 292 292 293 295 292 293 290 290 288 286 287 283 288 293 291 293 295 297 298 297 298 297 296 297 296 295 293 293 292 292 292 292 291 288 286 285 286 286 286 285 284 284
293 295 293 293 293 293 292 290 289 287 285 279 286 285 284 288 292 292 294 295 297 297 296 296 296 296 295 294 292 292 291 291 291 291 290 288 286 286 284 283 283 283 283 283
290 292 293 293 289 290 290 287 280 278 277 279 288 285 289 291 292 293 294 295 295 296 295 294 294 293 293 293 292 291 291 290 291 290 290 288 287 286 285 284 283 282 282 281
286 286 292 292 292 290 287 289 281 275 277 283 284 281 287 294 296 294 295 297 295 295 295 294 294 293 292 292 292 291 291 290 290 290 289 288 287 287 286 285 284 282 281 281
286 287 290 291 292 293 288 283 290 282 277 277 285 287 291 292 293 293 294 293 292 293 294 294 293 292 292 292 291 291 290 290 290 289 289 288 287 286 285 283 282 281 280 280
291 286 289 286 289 288 288 290 282 283 272 272 282 281 285 288 292 291 290 291 291 293 293 293 293 293 293 292 292 291 290 289 289 288 288 288 286 285 283 282 281 279 279 278
293 289 286 286 284 285 283 283 285 286 284 278 278 282 288 290 291 291 291 293 292 293 293 293 293 293 293 292 291 290 289 288 288 287 287 286 285 283 281 281 280 279 278 278
293 290 284 288 290 289 289 288 287 282 281 281 283 284 293 291 292 292 291 293 293 294 295 293 293 292 291 291 290 289 289 288 288 287 286 285 282 281 280 279 278 278 277 277
292 286 280 283 288 285 284 287 288 288 286 283 281 284 294 296 292 291 291 291 292 293 292 293 293 291 291 290 290 289 288 288 287 286 284 283 281 281 279 277 277 277 276 275
295 287 284 280 284 288 284 286 287 287 283 283 283 286 291 293 294 295 296 293 293 292 293 292 292 291 292 290 290 289 288 288 286 286 284 282 281 279 277 277 276 275 275 274
289 283 285 287 288 288 287 286 287 285 285 282 284 285 289 292 293 295 296 296 294 293 294 293 291 292 291 290 288 288 288 286 285 284 283 281 279 277 276 275 275 274 274 274
290 282 284 282 286 286 284 286 287 287 287 287 287 286 293 294 295 294 295 295 295 295 295 293 292 289 288 288 289 285 285 284 284 283 281 279 276 276 275 275 274 274 274 274
286 284 282 279 284 284 280 284 285 287 289 288 284 289 294 293 294 295 296 296 296 296 296 292 290 290 288 287 287 284 283 281 282 280 278 276 276 274 274 274 274 273 273 273
287 285 285 282 284 274 284 291 290 288 289 291 291 292 294 294 296 297 298 297 297 295 294 291 289 290 290 287 283 282 281 281 280 278 277 275 274 273 273 273 272 272 272 272
293 289 283 279 279 284 285 288 287 286 286 292 291 293 294 295 295 295 298 299 298 298 297 291 290 290 289 283 281 281 279 278 277 276 275 274 274 273 272 271 270 271 271 271
290 290 285 283 278 276 285 291 293 292 282 293 293 293 293 293 287 291 297 294 293 293 291 289 286 284 282 279 280 278 276 276 275 275 274 274 274 273 271 271 270 271 271 270
283 284 281 281 280 283 289 291 290 279 284 293 294 294 293 289 292 294 291 290 290 290 287 283 282 281 280 278 278 276 275 275 276 275 273 272 272 271 271 270 270 269 269 269
283 281 280 281 279 277 289 288 284 285 289 290 289 289 288 289 290 289 289 289 288 287 282 280 278 277 276 277 277 275 274 275 274 272 271 269 269 269 269 267 267 267 267 266
278 278 274 277 279 285 286 285 288 290 290 289 287 287 289 289 290 289 289 289 289 287 282 279 277 275 273 275 275 274 274 273 271 270 268 267 267 267 267 266 265 265 266 266
277 281 276 276 282 282 284 287 289 290 289 288 289 290 290 290 290 289 289 287 285 280 279 277 276 275 273 274 275 275 272 270 269 267 266 266 266 265 265 266 266 266 265 266
276 277 276 274 278 280 282 284 284 284 285 284 284 285 286 286 286 287 287 288 285 285 280 278 277 277 275 273 273 271 270 269 267 266 265 265 265 265 265 266 266 267 268 268
276 274 272 272 278 278 279 281 282 280 279 278 278 280 282 284 284 285 285 287 287 286 278 276 276 276 274 272 272 268 269 268 267 265 265 265 265 265 266 265 266 271 270 271
Wind_Speed
7 6 14 20 16 18 13 15 16 22 10 9 15 17 18 15 10 11 14 18 15 14 12 15 17 14 15 14 15 16 14 12 11 6 7 5 7 5 4 4 7 8 6 7
5 17 19 10 11 7 9 12 19 15 10 10 12 14 11 10 17 18 18 18 21 8 9 10 16 14 16 17 16 16 17 15 12 9 7 4 5 4 5 5 7 7 7 7
21 8 19 14 12 13 19 13 19 18 13 4 5 8 13 11 20 19 20 21 18 11 11 11 16 16 14 17 18 18 19 18 15 11 7 3 4 4 4 6 5 6 8 7
17 19 18 17 16 10 22 10 11 12 7 11 9 9 9 7 9 10 16 15 12 10 9 10 12 15 17 16 16 17 17 17 15 14 13 13 11 7 4 6 5 6 8 7
8 4 7 13 22 11 17 4 4 5 7 7 8 10 9 11 10 13 11 14 14 10 11 11 13 16 15 15 15 15 16 16 15 16 15 13 11 6 5 5 9 8 6 8
16 5 2 4 3 1 4 0 4 3 2 11 11 12 5 9 12 7 9 14 16 8 9 8 9 10 12 12 12 14 16 15 15 15 15 16 16 11 7 7 8 6 4 5
6 19 4 4 2 2 4 3 4 4 3 14 15 15 19 6 8 11 12 13 7 9 9 10 12 11 12 14 13 12 16 17 16 16 17 16 14 12 13 13 9 8 5 4
5 7 17 10 17 10 10 10 7 8 7 20 5 10 7 10 11 12 12 17 10 10 9 10 11 11 10 12 16 17 19 18 18 17 17 14 13 11 10 12 9 7 6 6
8 10 3 5 2 10 6 7 4 4 1 5 11 12 9 4 11 11 15 8 9 9 9 10 9 9 11 14 18 19 18 17 18 18 15 15 13 13 12 10 8 7 6 6
5 10 7 2 4 3 3 3 3 3 3 9 22 12 17 7 17 9 6 8 7 7 9 9 10 12 12 13 13 15 15 18 17 15 15 13 14 11 9 10 10 9 8 8
5 6 3 6 9 10 4 5 5 2 6 10 15 16 7 6 3 10 9 8 9 10 10 10 11 11 13 12 13 14 16 17 16 14 15 14 12 10 9 11 11 10 8 8
4 3 7 19 5 3 9 15 14 11 14 5 9 32 6 8 10 10 9 10 8 8 10 10 11 11 11 13 12 17 16 16 16 15 14 14 10 10 11 11 10 9 9 7
6 3 5 9 14 4 6 5 7 8 8 17 19 31 8 16 10 8 10 8 8 10 9 10 8 10 14 14 14 15 15 17 14 13 13 12 13 14 13 11 10 9 8 7
6 7 15 16 17 13 11 16 9 15 13 24 23 32 32 27 25 23 22 9 11 10 10 10 8 9 13 14 15 15 15 16 15 15 15 15 15 14 11 10 10 10 9 8
6 10 21 26 27 31 32 31 29 20 20 22 28 27 31 32 20 25 14 15 8 10 11 10 10 11 12 12 12 13 13 14 14 15 15 15 10 10 10 10 9 8 8 6
12 9 17 23 27 32 34 32 34 37 35 35 37 36 35 33 29 29 26 23 20 16 12 11 11 10 10 11 14 11 11 13 14 15 15 12 12 11 12 11 10 9 8 7
12 9 9 19 24 25 23 37 37 35 33 33 31 43 46 33 33 37 27 23 22 15 16 11 11 10 9 11 12 13 12 10 14 13 13 14 13 13 12 12 11 11 10 8
16 18 14 19 15 25 25 25 34 40 37 36 31 33 34 36 38 28 18 19 22 16 12 11 9 9 10 8 8 9 10 13 14 15 16 16 17 16 15 14 12 11 9 9
23 21 14 13 18 22 7 20 27 30 34 32 29 32 35 34 26 24 24 24 19 19 18 10 9 8 4 8 9 12 12 14 15 16 17 16 16 14 14 16 15 11 9 9
26 22 21 18 17 20 15 24 28 20 15 18 22 27 26 20 14 18 28 10 11 13 9 7 5 4 8 5 11 14 14 14 15 14 15 15 15 16 15 12 13 11 9 8
10 16 25 22 20 13 7 14 5 9 14 19 23 22 15 10 9 13 8 7 5 7 7 4 6 6 7 8 9 11 13 17 14 14 14 14 14 14 13 13 10 10 9 9
24 14 13 14 18 21 14 7 10 14 21 15 15 18 18 13 12 9 10 8 7 8 1 3 4 3 3 7 9 10 12 8 12 14 14 14 13 11 10 12 10 9 9 8
3 5 5 6 8 14 5 10 20 19 10 8 13 14 14 16 11 8 9 9 9 9 5 4 6 4 3 6 8 11 9 11 12 14 15 14 12 12 12 12 11 8 7 5
12 23 15 13 7 25 29 21 13 14 12 14 14 12 14 17 18 20 14 10 8 5 5 3 5 8 8 9 10 7 11 13 14 14 12 13 13 13 11 8 8 8 7 6
13 20 18 24 20 24 19 16 18 18 14 14 15 15 15 13 17 16 16 15 8 9 7 9 11 10 12 11 11 9 15 17 15 14 13 12 11 12 12 9 9 8 7 8
13 17 15 20 22 21 24 22 22 18 17 13 16 18 16 15 15 13 14 14 12 8 4 7 11 11 11 13 13 13 15 17 17 16 13 12 11 10 10 10 10 12 12 13
Wind_Direction
194 183 215 221 214 232 253 264 264 267 253 181 236 240 251 261 254 245 253 257 251 242 230 198 184 170 165 163 164 165 165 170 170 168 168 167 176 176 169 171 155 158 159 174
229 226 230 244 253 266 270 268 266 276 295 206 248 251 252 259 262 256 255 262 261 238 242 183 169 170 171 166 167 167 175 176 180 176 174 161 161 185 171 168 164 168 165 182
222 196 214 235 251 252 247 249 259 263 283 223 312 269 252 245 249 258 261 255 259 227 229 175 171 174 162 169 174 175 180 180 182 172 165 158 125 101 153 178 170 176 171 178
251 240 245 255 249 223 265 235 256 266 285 259 177 283 231 220 227 226 248 256 247 221 214 166 167 169 171 178 177 180 180 183 183 174 178 182 182 172 189 178 163 174 176 176
221 202 198 233 240 227 264 205 231 270 264 302 258 280 219 190 231 239 242 254 257 219 193 164 173 173 175 175 178 182 184 188 187 188 186 179 185 179 160 162 168 171 179 177
257 124 245 227 71 1 118 89 214 230 208 255 207 216 213 202 211 221 223 240 253 176 157 160 156 153 170 174 176 180 188 194 189 190 190 189 186 177 159 157 163 171 178 179
229 233 179 136 186 153 195 139 292 299 199 251 186 223 239 197 177 188 210 234 191 153 158 166 162 171 174 177 178 181 192 199 192 192 197 192 190 183 175 172 173 170 168 178
238 274 181 177 207 166 184 182 175 237 248 275 201 250 237 205 217 206 203 235 160 169 173 177 175 173 177 180 184 189 194 198 193 192 199 197 193 191 184 176 170 173 168 162
207 246 42 151 122 159 183 203 196 264 112 302 247 268 311 275 238 220 218 165 175 178 175 181 174 179 185 188 194 195 196 201 201 196 196 199 196 193 185 168 156 160 152 158
260 262 185 85 45 284 217 167 134 231 246 242 277 278 267 208 231 223 191 205 216 207 192 187 189 194 194 198 199 196 197 203 203 194 197 199 197 192 169 160 164 160 161 159
234 228 205 122 205 190 168 237 223 269 190 237 270 272 276 139 154 176 208 204 226 199 199 197 198 197 194 193 193 194 195 196 200 195 190 193 191 181 170 169 164 163 149 152
212 233 237 236 232 237 234 220 188 221 237 232 234 261 221 153 164 161 193 198 213 200 196 196 204 190 185 194 189 197 199 197 201 193 187 189 168 169 172 170 159 152 157 155
3 319 331 287 279 216 220 227 238 257 264 249 245 264 171 252 249 228 192 208 220 224 219 213 208 191 196 196 200 201 197 201 192 186 182 178 177 178 179 163 149 146 146 154
107 237 244 245 250 286 265 269 248 244 242 252 249 262 272 266 273 274 274 247 225 223 216 223 222 210 204 202 202 201 202 197 184 181 180 180 182 178 166 149 148 153 154 157
174 233 235 242 248 259 258 262 275 267 266 264 276 267 272 271 267 264 266 269 248 264 260 234 227 227 207 205 201 199 198 186 177 175 179 180 159 154 147 143 144 141 150 153
178 240 226 232 235 243 252 257 259 255 254 246 249 267 256 265 276 276 271 273 277 274 260 247 231 222 220 207 205 192 186 177 170 173 172 154 148 150 150 146 144 141 145 156
178 201 199 243 230 237 243 236 242 252 247 245 245 240 254 258 255 261 271 275 274 261 262 225 226 227 218 215 198 192 179 152 162 160 153 151 149 149 150 146 146 157 163 161
216 218 236 249 231 229 229 241 232 239 242 248 248 253 252 252 256 258 263 268 272 262 267 253 227 229 221 209 179 136 143 157 158 160 159 155 155 156 154 151 160 157 158 166
225 234 242 239 234 253 275 229 222 219 237 241 254 250 250 253 265 281 258 253 262 270 264 232 213 215 189 159 147 142 147 155 165 173 172 165 162 159 159 158 158 160 162 169
233 233 237 240 248 248 242 236 251 251 259 254 240 246 245 246 246 251 265 271 222 241 236 235 156 142 138 154 146 151 163 167 182 174 168 163 166 163 163 159 151 156 154 153
217 226 234 242 251 256 224 267 12 243 269 253 264 263 277 264 257 268 306 277 241 232 205 137 152 181 159 140 152 164 170 191 175 163 158 157 157 155 155 148 148 146 147 152
246 230 225 232 237 247 356 326 263 336 325 357 10 352 341 335 335 342 334 317 274 264 197 162 137 129 127 139 160 175 194 167 156 151 150 151 150 145 145 142 138 143 145 146
300 10 310 313 331 318 282 306 296 296 311 346 325 318 317 318 325 312 303 309 297 277 218 172 156 160 182 167 183 186 180 151 152 150 153 150 142 139 141 144 144 142 143 153
303 297 283 307 328 308 296 305 330 334 338 329 314 301 315 315 308 305 302 285 262 246 228 178 173 197 209 200 203 184 152 151 152 152 156 148 147 141 141 139 145 137 151 160
284 314 303 296 289 304 294 320 312 306 307 313 307 302 293 284 281 289 297 295 267 241 211 187 207 216 217 182 192 163 162 159 157 152 155 158 150 154 146 147 148 152 161 162
271 275 284 286 294 294 303 325 321 329 337 343 320 308 309 309 296 302 289 290 285 274 208 195 205 210 204 187 183 169 170 168 161 158 162 167 155 159 147 141 140 156 155 160